Weather History for Jackson, TN

Change the Weather History Date:

Sunday, April 20, 2014

  Actual Average Record
Temperature  
Mean Temperature 62 °F 61 °F  
Max Temperature 81 °F 73 °F 90 °F (1987)
Min Temperature 43 °F 49 °F 29 °F (1983)
Degree Days  
Heating Degree Days 3 5  
Month to date heating degree days 165 155  
Since 1 July heating degree days 4055 3483  
Cooling Degree Days 0 2  
Month to date cooling degree days 31 26  
Year to date cooling degree days 31 37  
Growing Degree Days 12 (Base 50)    
Moisture  
Dew Point 45 °F    
Average Humidity 59    
Maximum Humidity 92    
Minimum Humidity 26    
Precipitation  
Precipitation 0.00 in 0.17 in 1.33 in (1995)
Month to date precipitation 2.45 3.15  
Year to date precipitation 16.45 16.14  
Snow  
Snow 0.00 in 0.00 in - ()
Month to date snowfall T 0.1  
Since 1 July snowfall 1.3 4.7  
Snow Depth 0.00 in    
Sea Level Pressure  
Sea Level Pressure 30.15 in    
Wind  
Wind Speed 3 mph (SW)    
Max Wind Speed 12 mph    
Max Gust Speed 16 mph    
Visibility 10 miles    
Events      
T = Trace of Precipitation, MM = Missing Value Source: NWS Daily Summary

Daily Weather History Graph

Daily Weather History Graph

Search for Another Location

Airport:

Trip Planner

Search our weather history database for the weather conditions in past years. The results will help you decide how hot, cold, wet, or windy it might be!

Date:

Astronomy

Apr. 20, 2014 Rise Set
Actual Time 6:16 AM CDT 7:33 PM CDT
Civil Twilight 5:50 AM CDT 7:59 PM CDT
Nautical Twilight 5:18 AM CDT 8:31 PM CDT
Astronomical Twilight 4:45 AM CDT 9:04 PM CDT
Moon 12:08 AM CDT (4/20) 10:41 AM CDT (4/20)
Length of Visible Light 14h 09m
Length of Day
13h 16m
Waning Gibbous, 68% of the Moon is Illuminated
Apr 20
Waning Gibbous
Apr 22
Last Quarter
Apr 29
New
May 6
First Quarter
May 14
Full

Hourly Weather History & Observations

Time (CDT) Temp. Dew Point Humidity Pressure Visibility Wind Dir Wind Speed Gust Speed Precip Events Conditions
12:53 AM 48.0 °F 44.1 °F 86% 30.16 in 10.0 mi Calm Calm - N/A   Clear
1:53 AM 46.9 °F 43.0 °F 86% 30.14 in 10.0 mi Calm Calm - N/A   Clear
2:53 AM 46.9 °F 43.0 °F 86% 30.15 in 10.0 mi Calm Calm - N/A   Clear
3:53 AM 46.0 °F 43.0 °F 89% 30.17 in 10.0 mi Calm Calm - N/A   Clear
4:53 AM 45.0 °F 42.1 °F 90% 30.17 in 10.0 mi Calm Calm - N/A   Clear
5:53 AM 43.0 °F 39.9 °F 89% 30.18 in 8.0 mi Calm Calm - N/A   Clear
6:53 AM 44.1 °F 41.0 °F 89% 30.22 in 9.0 mi Calm Calm - N/A   Clear
7:53 AM 54.0 °F 46.0 °F 75% 30.22 in 10.0 mi Calm Calm - N/A   Clear
8:53 AM 64.9 °F 45.0 °F 48% 30.22 in 10.0 mi Variable 3.5 mph - N/A   Clear
9:53 AM 69.1 °F 45.0 °F 42% 30.23 in 10.0 mi South 6.9 mph - N/A   Clear
10:53 AM 73.0 °F 45.0 °F 37% 30.22 in 10.0 mi South 8.1 mph - N/A   Clear
11:53 AM 75.0 °F 44.1 °F 33% 30.20 in 10.0 mi WSW 6.9 mph - N/A   Clear
12:53 PM 77.0 °F 44.1 °F 31% 30.18 in 10.0 mi Variable 5.8 mph - N/A   Clear
1:53 PM 78.1 °F 45.0 °F 31% 30.17 in 10.0 mi NW 8.1 mph - N/A   Clear
2:53 PM 79.0 °F 44.1 °F 29% 30.14 in 10.0 mi Variable 4.6 mph - N/A   Clear
3:53 PM 80.1 °F 43.0 °F 27% 30.12 in 10.0 mi Calm Calm - N/A   Clear
4:53 PM 80.1 °F 46.9 °F 31% 30.10 in 10.0 mi South 5.8 mph - N/A   Clear
5:53 PM 78.1 °F 44.1 °F 30% 30.09 in 10.0 mi Calm Calm - N/A   Clear
6:53 PM 75.9 °F 45.0 °F 33% 30.09 in 10.0 mi West 3.5 mph - N/A   Clear
7:53 PM 66.9 °F 48.9 °F 52% 30.09 in 10.0 mi Calm Calm - 0.00 in   Clear
8:53 PM 61.0 °F 48.0 °F 62% 30.10 in 10.0 mi WSW 3.5 mph - 0.00 in   Clear
9:53 PM 59.0 °F 50.0 °F 72% 30.10 in 10.0 mi SSW 3.5 mph - N/A   Clear
10:53 PM 57.9 °F 50.0 °F 75% 30.10 in 10.0 mi South 3.5 mph - N/A   Clear
11:53 PM 54.0 °F 48.9 °F 83% 30.10 in 10.0 mi South 3.5 mph - N/A   Clear